{"data":{"norad_id":64611,"epoch":"2026-05-24T23:18:38.528928Z","epoch_age_seconds":70732,"freshness":"FRESH","line1":"1 64611U 25137T   26144.97127927  .00006129  00000+0  21892-3 0  9999","line2":"2 64611  53.1600 340.9356 0001096 100.4955 259.6169 15.30196247 52413","mean_motion":15.30196247,"eccentricity":0.0001096,"inclination_deg":53.16,"raan_deg":340.9356,"arg_perigee_deg":100.4955,"mean_anomaly_deg":259.6169,"bstar":0.00021892,"rev_number":5241,"period_min":94.105576511717,"perigee_km":474.47514660878,"apogee_km":475.97740383871,"semimajor_km":6853.3632752237,"source":"CELESTRAK","updated_at":"2026-05-25T13:38:20.496880Z"}}